Home   Weather   Arequipa   Past weeks

Flag for Peru Past Weather in Arequipa, Arequipa, Peru — Yesterday and Last 2 Weeks

Now
45 °F

Clear.


Feels Like: 39 °F
Forecast: 49 / 68 °F
Wind: 10 mph from Northeast

Location: Arequipa Airport

Current Time: Jul 22, 2017 at 6:06:04 am

Latest Report: Jul 22, 2017 at 5:00 am


Visibility: 10 mi

Pressure: 30.36 "Hg (22.81 "Hg at 2345m altitude)

Humidity: 31%

Dew Point: 16 °F

Location of ArequipaLocation

Past Weather in Arequipa — Graph

°F

Arequipa Temperature Yesterday

Maximum temperature yesterday: 70 °F (at 11:00 am)
Minimum temperature yesterday: 45 °F (at 4:00 am)
Average temperature yesterday: 55 °F

High & Low Weather Summary for the Past Weeks

 TemperatureHumidityPressure
High72 °F (Jul 8, 12:00 pm)49% (Jul 15, 4:00 am)30.42 "Hg (Jul 15, 4:00 am)
Low43 °F (Jul 15, 4:00 am)6% (Jul 9, 9:00 am)30.24 "Hg (Jul 10, 3:00 pm)
Average56 °F22%30.33 "Hg
* Reported Jul 7 5:00 am — Jul 22 5:00 am, Arequipa. Weather by CustomWeather, © 2017

Note: Actual official high and low records may vary slightly from our data, if they occured in-between our weather recording intervals... More about our weather records

Advertising

Arequipa Weather History for the Previous 24 Hours

Scroll right to see more
 ConditionsComfort  
Time TempWeatherWind HumidityBarometerVisibility
5:00 am
Sat, Jul 22
45 °FClear.10 mph31%30.36 "Hg10 mi
4:00 am43 °FClear.3 mph36%30.36 "Hg10 mi
3:00 am45 °FClear.5 mph34%30.33 "Hg10 mi
2:00 am45 °FClear.6 mph37%30.33 "Hg10 mi
1:00 am46 °FClear.5 mph32%30.36 "Hg10 mi
12:00 am45 °FPassing clouds.6 mph34%30.36 "HgN/A
11:00 pm
Fri, Jul 21
48 °FClear.5 mph34%30.36 "Hg10 mi
10:00 pm50 °FClear.3 mph30%30.36 "Hg10 mi
9:00 pm48 °FClear.7 mph27%30.36 "Hg10 mi
8:00 pm50 °FClear.8 mph32%30.36 "Hg10 mi
7:00 pm52 °FClear.8 mph28%30.36 "Hg10 mi
6:00 pm54 °FClear.12 mph38%30.33 "Hg10 mi
5:00 pm59 °FSunny.14 mph23%30.27 "Hg10 mi
4:00 pm64 °FPassing clouds.10 mph15%30.24 "HgN/A
3:00 pm66 °FPassing clouds.8 mph13%30.27 "HgN/A
2:00 pm66 °FPassing clouds.10 mph12%30.27 "HgN/A
1:00 pm66 °FPassing clouds.8 mph14%30.27 "HgN/A
12:00 pm66 °FSunny.14 mph13%30.30 "Hg10 mi
11:00 am70 °FPassing clouds.7 mph8%30.30 "HgN/A
10:00 am68 °FPassing clouds.5 mph10%30.30 "HgN/A
9:00 am68 °FSunny.No wind9%30.30 "Hg10 mi
8:00 am59 °FSunny.6 mph11%30.30 "Hg10 mi
7:00 am46 °FSunny.8 mph18%30.30 "Hg10 mi
6:00 am45 °FClear.7 mph19%30.27 "Hg10 mi
Weather by CustomWeather, © 2017

See weather overviewHow to use our weather pages